POPACS 1

Last updated on Tue Jul 01 2025 00:03:44 GMT+0000 (Coordinated Universal Time)

1 39268U 13055D 25181.10209243 .00031107 -37414-6 26505-3 0 9999 2 39268 80.9693 61.5552 0229063 272.8361 84.6687 15.42400750617797
UTC large
Height (km)
Speed (km/s)
/
Latitude / Longitude
Inclination (degrees)
Orbital Period (minutes)
Azimuth
Elevation
Range (km)
Doppler Factor

Next 0 passes for location: London (51.5072 / 0.1276)

Sorry there are no passes over London.